Regional Weather Roundup
Issued by NWS

Home | Current Version | Previous Version | Graphics & Text | Print | Product List | Glossary On
Versions: 1 2 3 4 5 6 7 8 9 10 11 12 13 14 15 16 17 18 19 20 21 22 23 24 25 26 27 28 29 30 31 32 33 34 35 36 37 38 39 40 41 42 43 44 45 46 47 48 49 50
000
ASUS43 KLSX 171659
RWRMO

WEATHER SUMMARY FOR MISSOURI
NATIONAL WEATHER SERVICE SPRINGFIELD MO
1100 AM CST WED DEC 17 2014

NOTE: "FAIR" INDICATES FEW OR NO CLOUDS BELOW 12,000 FEET WITH NO
       SIGNIFICANT WEATHER AND/OR OBSTRUCTIONS TO VISIBILITY.
       CURRENT SKY AND/OR WEATHER CONDITIONS ARE NOT AVAILABLE FOR
       CHILLICOTHE AND FARMINGTON.

MOZ001>031-035>038-043-044-053-054-171800-
...NORTHERN AND WESTERN MISSOURI...

CITY           SKY/WX    TMP DP  RH WIND       PRES   REMARKS
KANSAS CTY INT PTSUNNY   26  19  74 CALM      30.34F
KANSAS C DTWN  CLOUDY    30  18  60 CALM      30.35S
LEE`S SUMMIT   PTSUNNY   29  19  66 W5        30.34S WCI  24
ST JOSEPH      PTSUNNY   26  17  68 VRB5      30.35F WCI  20
CHILLICOTHE      N/A     25  19  78 N5        30.37S WCI  19
KIRKSVILLE     CLOUDY    24  20  84 NE5       30.34F WCI  18

$$
MOZ066>068-077>081-088>096-101>105-171800-
...SOUTHWEST MISSOURI...

CITY           SKY/WX    TMP DP  RH WIND       PRES   REMARKS
SPRINGFIELD    CLOUDY    30  25  81 NW6       30.33R WCI  24
JOPLIN         CLOUDY    31  25  78 N3        30.34S

$$
MOZ032>034-039>042-045>050-055>058-069>072-171800-
...CENTRAL MISSOURI...

CITY           SKY/WX    TMP DP  RH WIND       PRES   REMARKS
COLUMBIA       SUNNY     30  22  72 N6        30.32F WCI  24
JEFFERSON CITY SUNNY     30  21  69 W5        30.35F WCI  25
ROLLA          SUNNY     32  22  66 N6        30.29F WCI  26
SEDALIA        MOSUNNY   31  22  69 NE6       30.32F WCI  25
OSAGE BEACH    MOSUNNY   32  21  64 CALM      30.32F

$$
MOZ051-052-059>065-171800-
...EAST CENTRAL MISSOURI...

CITY           SKY/WX    TMP DP  RH WIND       PRES   REMARKS
ST LOUIS INTL  NOT AVBL
SPIRIT OF STL  SUNNY     34  23  64 CALM      30.33F

$$
MOZ072>076-082>087-097>100-106>115-171800-
...SOUTH CENTRAL AND SOUTHEAST MISSOURI...

CITY           SKY/WX    TMP DP  RH WIND       PRES   REMARKS
CAPE GIRARDEAU MOSUNNY   35  25  66 CALM      30.36F
FARMINGTON     SUNNY     32  25  74 CALM      30.33F
POPLAR BLUFF   SUNNY     36  24  62 VRB5      30.33F
WEST PLAINS    MOSUNNY   34  24  67 VRB3      30.30F

$$



USA.gov is the U.S. government's official web portal to all federal, state and local government web resources and services.